Visalia, CA

1:27 AM PDT on October 23, 2019 (GMT -0700)
Visalia Municipal

Weather History for KVIS - August, 2019

Change the Weather History Date:

Saturday, August 31, 2019

  Actual Average Record
Temperature  
Mean Temperature 80 °F -  
Max Temperature 97 °F 90 °F 108 °F (1950)
Min Temperature 64 °F 62 °F 52 °F (1941)
Cooling Degree Days 15    
Growing Degree Days 30 (Base 50)    
Moisture  
Dew Point 61 °F    
Average Humidity 53    
Maximum Humidity 87    
Minimum Humidity 28    
Precipitation  
Precipitation 0.00 in - - ()
Sea Level Pressure  
Sea Level Pressure 29.91 in    
Wind  
Wind Speed 5 mph (WNW)    
Max Wind Speed 9 mph    
Max Gust Speed -    
Visibility 10 miles    
Events      
Averages and records for this station are not official NWS values.
T = Trace of Precipitation, MM = Missing Value Source: NWS Daily Summary

Daily Weather History Graph

Daily Weather History Graph

Search for Another Location

Airport or City:

Astronomy

Aug. 31, 2019 Rise Set
Actual Time 6:28 AM PDT 7:27 PM PDT
Civil Twilight 6:01 AM PDT 7:53 PM PDT
Nautical Twilight 5:30 AM PDT 8:24 PM PDT
Astronomical Twilight 4:58 AM PDT 8:56 PM PDT
Moon 7:49 AM PDT (8/31) 8:45 PM PDT (8/31)
Length of Visible Light 13h 51m
Length of Day
12h 58m
Waxing Crescent, 3% of the Moon is Illuminated
Aug 31
Waxing Crescent
Sep 5
First Quarter
Sep 13
Full
Sep 21
Last Quarter
Sep 28
New

Hourly Weather History & Observations

Time (PDT) Temp. Heat Index Dew Point Humidity Pressure Visibility Wind Dir Wind Speed Gust Speed Precip Events Conditions
12:56 AM 73.9 °F - 63.0 °F 68% 29.93 in 10.0 mi NW 5.8 mph - N/A   Clear
1:56 AM 73.9 °F - 62.1 °F 66% 29.93 in 10.0 mi NW 9.2 mph - N/A   Clear
2:56 AM 73.0 °F - 61.0 °F 66% 29.92 in 10.0 mi NW 6.9 mph - N/A   Clear
3:56 AM 70.0 °F - 60.1 °F 71% 29.93 in 10.0 mi NW 4.6 mph - N/A   Clear
4:56 AM 69.1 °F - 60.1 °F 73% 29.93 in 10.0 mi Calm Calm - N/A   Clear
5:56 AM 64.9 °F - 61.0 °F 87% 29.94 in 10.0 mi Calm Calm - N/A   Clear
6:56 AM 64.9 °F - 60.1 °F 84% 29.95 in 10.0 mi Calm Calm - N/A   Clear
7:56 AM 71.1 °F - 63.0 °F 75% 29.96 in 6.0 mi Calm Calm - N/A   Haze
8:56 AM 75.0 °F - 64.9 °F 71% 29.97 in 8.0 mi South 4.6 mph - N/A   Clear
9:56 AM 79.0 °F - 64.0 °F 60% 29.96 in 9.0 mi SW 4.6 mph - N/A   Clear
10:56 AM 84.0 °F 85.4 °F 64.0 °F 51% 29.96 in 10.0 mi South 4.6 mph - N/A   Clear
11:56 AM 87.1 °F 87.8 °F 63.0 °F 44% 29.95 in 10.0 mi Variable 4.6 mph - N/A   Clear
12:56 PM 91.9 °F 91.5 °F 60.1 °F 34% 29.92 in 10.0 mi West 6.9 mph - N/A   Clear
1:56 PM 93.9 °F 93.2 °F 59.0 °F 31% 29.91 in 10.0 mi WNW 5.8 mph - N/A   Clear
2:56 PM 95.0 °F 93.7 °F 57.0 °F 28% 29.88 in 10.0 mi WSW 8.1 mph - N/A   Clear
3:56 PM 96.1 °F 95.6 °F 59.0 °F 29% 29.86 in 10.0 mi WNW 9.2 mph - N/A   Clear
4:56 PM 96.1 °F 96.0 °F 60.1 °F 30% 29.85 in 10.0 mi WNW 8.1 mph - N/A   Clear
5:56 PM 96.1 °F 95.2 °F 57.9 °F 28% 29.84 in 10.0 mi North 4.6 mph - N/A   Clear
6:56 PM 91.9 °F 92.5 °F 62.1 °F 37% 29.83 in 10.0 mi West 3.5 mph - N/A   Clear
7:56 PM 86.0 °F 86.3 °F 62.1 °F 44% 29.84 in 10.0 mi West 5.8 mph - N/A   Clear
8:56 PM 82.9 °F 83.2 °F 60.1 °F 46% 29.85 in 10.0 mi NW 4.6 mph - N/A   Clear
9:56 PM 82.0 °F 82.0 °F 57.9 °F 44% 29.87 in 10.0 mi NW 4.6 mph - N/A   Clear
10:56 PM 78.1 °F - 60.1 °F 54% 29.88 in 10.0 mi Calm Calm - N/A   Clear
11:56 PM 75.0 °F - 61.0 °F 62% 29.88 in 10.0 mi Calm Calm - N/A   Clear